Location: Unspecified
(44.4377°N, 88.0525°W)
Time: 07:19:41
(UTC-06:00)

Resurs 1-4 Rocket - Visible Passes

Search period start: 28 November 2014 00:00
Search period end: 08 December 2014 00:00
Orbit: 800 x 815 km, 98.4° (Epoch: 27 November)

Date Brightness Start Highest point End Pass type
(mag) Time Alt. Az. Time Alt. Az. Time Alt. Az.
28 Nov 4.2 04:24:52 10° N 04:25:45 15° N 04:25:45 15° N visible
29 Nov 4.4 04:00:19 10° NNE 04:00:52 13° NNE 04:00:52 13° NNE visible
30 Nov 4.7 03:35:56 10° NNE 03:35:59 10° NNE 03:35:59 10° NNE visible
30 Nov 4.2 05:16:47 10° NNW 05:17:04 11° NNW 05:17:04 11° NNW visible
01 Dec 4.3 04:51:47 10° N 04:52:11 12° N 04:52:11 12° N visible
02 Dec 4.4 04:27:02 10° N 04:27:19 12° N 04:27:19 12° N visible
